Wind_Speed
3 2 1 3 7 8 9 9 9 9 8 8 8 8 8 8 7 7 8 8 8 8 8 8 8 8 9 9 8 8 8 8 9 9 9 9 8 8 7 7 6 6 6
3 3 4 5 8 8 9 9 8 8 8 8 8 7 7 7 6 6 7 7 8 8 8 8 8 8 8 8 8 8 7 7 8 8 8 8 8 8 7 6 6 6 6
4 4 4 5 6 7 8 8 8 8 8 8 7 7 7 6 5 6 6 6 7 7 7 7 8 7 8 7 7 7 7 7 7 7 8 8 7 7 7 6 6 6 5
4 4 4 5 5 6 7 7 7 7 7 7 7 7 6 6 5 5 5 5 6 6 7 6 7 7 7 6 6 6 6 6 6 6 7 7 7 7 7 7 6 6 5
3 3 3 4 4 5 6 7 7 7 7 7 7 7 6 5 4 4 4 5 6 6 6 5 6 7 6 6 6 5 5 5 5 5 6 6 6 6 6 6 6 6 5
2 3 2 3 3 4 5 6 6 6 7 7 7 7 6 5 4 3 3 4 5 5 5 5 5 6 6 6 5 5 4 4 3 4 4 4 5 5 5 5 5 5 5
1 2 2 2 3 3 4 5 6 6 7 6 6 6 6 5 4 4 4 3 5 5 4 4 4 5 5 5 5 4 3 3 3 3 3 3 4 4 4 4 4 4 4
1 1 2 2 2 3 4 5 5 5 6 6 6 6 5 4 3 4 4 3 5 4 4 4 4 5 5 4 4 3 3 2 2 3 3 3 3 3 3 3 3 3 3
1 1 1 2 2 2 3 3 4 4 6 5 5 5 5 4 4 3 3 4 4 4 4 3 4 4 4 3 3 2 2 2 1 2 2 2 2 2 2 2 3 3 3
1 1 1 1 2 1 2 3 4 4 5 5 5 5 4 4 4 3 3 4 4 4 4 3 3 3 4 3 2 1 1 1 1 1 2 1 1 2 2 2 2 3 3
1 0 0 1 1 1 1 2 4 4 4 5 5 5 4 4 4 4 4 4 3 3 4 4 4 4 4 2 1 1 1 1 0 1 2 1 1 1 1 2 2 2 3
4 2 1 0 1 1 1 2 3 3 4 5 5 4 4 4 4 5 4 4 4 4 4 4 4 4 4 2 1 1 1 1 1 1 2 1 1 1 1 2 2 2 3
5 4 3 2 2 1 2 2 3 3 3 4 5 4 4 4 5 5 5 4 4 3 4 4 5 4 3 3 2 1 1 1 1 1 1 1 1 0 1 1 2 2 3
5 4 3 3 3 2 2 3 3 3 3 4 4 3 3 4 5 5 4 4 4 3 3 4 5 4 4 4 3 2 1 1 1 1 1 1 1 1 1 1 2 3 3
6 5 4 4 4 3 3 3 3 3 3 3 3 3 3 3 3 4 5 5 4 4 4 4 4 4 4 4 4 3 2 2 2 2 2 1 1 2 2 3 3 3 4
8 6 5 4 4 4 4 3 3 2 2 2 3 4 3 3 3 4 5 5 5 6 5 5 5 5 4 4 3 3 3 3 3 3 3 2 2 2 3 3 3 4 4
9 8 7 6 6 6 5 3 4 3 2 3 3 3 3 4 4 5 5 5 6 6 5 4 5 5 5 5 4 4 4 5 5 5 4 4 4 4 3 4 4 5 5
9 8 8 7 7 6 6 5 5 4 3 3 3 3 4 4 5 5 6 6 6 6 5 5 5 6 6 7 7 6 6 7 6 7 6 5 5 5 5 6 6 6 7
10 9 9 9 8 7 6 6 5 4 4 4 4 5 5 5 6 6 6 7 7 6 6 6 7 7 6 8 9 9 8 8 8 8 7 6 6 7 7 7 7 8 8
10 10 10 9 9 8 8 7 6 5 5 5 5 5 6 6 6 7 7 8 8 7 7 7 8 8 7 8 9 10 9 8 8 8 8 8 8 8 9 9 8 9 9
10 9 10 10 9 9 8 8 6 5 5 5 5 6 6 7 7 7 7 8 8 8 8 9 9 9 9 8 9 9 10 10 9 9 9 9 10 10 10 10 10 10 10
10 10 10 10 10 9 9 8 8 7 6 6 6 7 7 8 7 7 8 9 9 9 10 10 11 10 10 10 10 10 11 11 11 10 9 10 11 11 11 11 11 12 12
11 10 10 10 10 10 9 9 9 8 7 6 7 8 8 8 8 7 8 9 10 10 10 11 11 10 11 11 11 11 12 12 12 12 11 11 12 12 12 13 13 13 13
11 11 11 11 11 10 10 9 9 9 8 7 7 7 7 8 9 9 9 10 10 10 11 11 12 12 12 12 13 13 13 13 13 12 12 13 13 14 14 14 15 15 15
12 12 12 12 11 11 10 10 10 9 9 8 8 8 8 9 9 9 9 9 10 11 12 12 13 13 13 14 14 13 14 14 15 14 14 14 14 14 14 15 15 15 15
14 13 13 12 11 11 11 11 10 10 11 10 9 9 9 9 9 9 10 11 11 12 12 12 13 14 15 14 14 14 15 15 16 15 15 15 16 16 16 16 16 16 16
Wind_Direction
94 133 136 165 164 159 155 153 151 152 150 143 139 135 133 132 129 129 132 130 130 127 125 118 115 116 113 106 102 102 96 93 89 87 86 85 85 85 85 83 85 88 87
87 94 99 129 147 155 156 156 156 154 151 147 146 139 135 135 133 133 134 136 136 132 129 126 124 121 113 106 101 101 94 92 94 90 86 84 83 81 83 80 79 79 75
88 92 103 127 146 156 161 163 162 160 157 154 153 149 144 145 146 140 140 142 139 137 136 130 129 125 119 111 105 104 97 92 94 92 85 84 82 78 73 74 76 75 70
87 92 101 122 142 154 163 168 172 169 168 164 161 160 158 159 154 144 145 149 149 140 136 132 134 127 120 115 112 109 99 95 95 87 81 82 80 77 69 68 71 70 68
90 94 102 116 132 152 165 173 180 177 176 172 171 169 167 166 160 150 154 153 156 148 146 141 143 136 129 122 120 115 107 103 101 86 78 80 79 76 69 67 65 64 61
94 101 105 123 134 153 170 182 185 185 186 184 177 173 173 172 174 166 165 165 163 160 156 148 150 147 138 132 130 123 116 109 104 94 90 87 82 74 66 62 61 57 54
129 116 134 142 154 168 179 187 185 190 194 194 188 183 176 174 180 180 174 163 161 158 157 156 154 158 149 141 133 130 125 121 110 104 102 96 84 73 64 58 55 52 47
205 149 136 146 163 180 184 190 188 190 193 191 193 187 187 189 183 176 176 158 160 163 155 159 172 168 163 159 149 143 142 125 119 119 117 110 88 72 63 55 47 41 35
236 189 158 120 145 173 189 189 193 189 187 195 203 196 192 187 177 178 177 168 167 173 175 175 183 182 191 180 164 153 130 119 125 137 127 118 84 60 51 45 39 38 26
272 210 179 120 123 162 189 197 204 203 201 204 206 197 193 192 194 193 193 186 188 188 194 200 203 210 207 195 183 159 135 121 129 150 142 124 79 43 34 22 22 33 21
52 82 190 115 117 185 202 201 202 213 208 204 205 203 207 209 208 209 212 206 211 206 214 219 232 224 212 203 202 190 176 167 184 167 171 153 80 48 24 9 358 359 360
47 47 38 299 296 283 245 225 212 224 212 209 219 225 216 217 218 216 220 212 210 212 222 240 244 226 219 223 252 279 219 242 238 200 188 182 135 58 28 15 4 355 352
43 41 31 5 330 305 264 249 239 245 231 227 233 237 228 227 220 221 227 224 215 218 229 247 246 234 226 247 275 282 267 285 245 200 186 213 256 326 3 31 10 358 347
33 31 22 6 348 323 306 264 261 261 266 256 251 242 247 245 234 228 237 235 223 229 235 246 244 237 236 241 261 265 255 230 260 242 230 218 238 292 294 337 327 336 333
23 20 9 356 337 322 319 298 282 263 263 254 248 243 246 245 245 240 244 235 236 234 231 244 249 242 243 252 256 254 261 264 266 255 257 245 272 301 303 318 318 308 317
20 18 6 354 352 344 333 317 300 289 294 250 239 249 254 247 246 253 244 240 237 235 242 249 254 252 252 270 260 256 261 272 265 255 258 265 274 285 301 317 316 317 319
14 14 8 360 359 360 352 345 336 317 284 269 258 255 263 260 249 248 243 239 231 234 249 261 273 275 265 264 268 272 268 270 269 260 255 258 273 273 282 298 308 315 315
5 4 2 358 357 358 353 344 332 313 289 268 259 264 265 264 258 252 248 245 247 251 261 271 280 275 273 270 267 268 271 267 265 258 259 259 267 274 277 283 291 303 309
357 357 358 358 358 353 346 338 331 310 283 268 271 276 273 270 265 259 260 268 267 268 273 274 274 274 272 269 266 268 268 267 264 261 262 264 264 271 274 277 286 293 298
348 348 348 351 352 348 343 335 320 310 288 272 276 279 276 278 271 265 264 272 275 277 276 273 270 273 277 280 271 269 264 266 263 261 262 266 267 272 280 284 287 292 292
339 341 345 346 345 343 340 336 323 314 293 276 274 282 285 286 280 273 269 271 275 277 279 279 278 279 280 283 281 275 266 269 263 263 264 267 269 276 282 287 289 294 294
334 335 338 340 339 337 334 336 330 316 298 281 279 285 289 289 279 271 271 273 275 274 276 280 282 279 278 278 279 280 277 273 266 267 267 270 274 280 285 288 289 292 296
328 329 329 330 330 332 331 329 331 323 313 296 291 293 292 289 285 280 275 278 276 275 277 279 280 284 281 278 276 278 279 275 271 271 273 273 276 281 285 285 285 288 292
320 319 320 322 325 327 326 324 325 323 318 309 304 311 307 300 295 288 285 283 283 281 283 279 278 279 280 279 278 278 277 276 275 273 273 274 276 277 278 280 283 284 288
312 312 314 317 320 323 325 321 321 316 314 307 302 306 311 312 310 304 300 292 288 288 289 284 281 282 281 281 281 278 276 277 276 276 274 274 276 278 280 283 283 284 287
303 305 307 311 314 317 321 323 319 317 311 307 299 297 303 308 311 307 304 300 292 295 295 289 286 287 284 283 282 280 278 276 275 277 277 276 276 278 281 283 284 285 286
Height
5881 5880 5879 5875 5878 5882 5884 5885 5886 5888 5889 5889 5890 5891 5892 5892 5893 5894 5894 5895 5895 5896 5897 5898 5899 5899 5900 5901 5901 5902 5902 5902 5903 5903 5904 5904 5904 5904 5904 5905 5905 5905 5905
5882 5881 5881 5878 5880 5883 5885 5886 5887 5889 5890 5890 5891 5892 5893 5894 5894 5895 5895 5896 5897 5898 5898 5899 5900 5900 5901 5902 5902 5903 5903 5904 5904 5904 5905 5905 5905 5905 5906 5906 5906 5906 5906
5883 5883 5883 5883 5883 5885 5886 5887 5888 5889 5890 5891 5892 5893 5894 5895 5895 5896 5897 5897 5898 5899 5899 5900 5901 5902 5902 5903 5903 5904 5904 5905 5905 5905 5906 5906 5906 5906 5906 5906 5907 5907 5907
5885 5885 5885 5885 5885 5886 5887 5888 5889 5890 5891 5892 5893 5894 5895 5896 5896 5897 5898 5898 5899 5900 5900 5901 5902 5903 5903 5904 5904 5905 5905 5906 5906 5906 5907 5907 5907 5907 5907 5907 5908 5908 5908
5886 5886 5886 5887 5887 5887 5888 5889 5890 5890 5892 5893 5894 5895 5895 5896 5897 5898 5899 5899 5900 5900 5901 5902 5903 5904 5904 5905 5905 5906 5906 5907 5907 5907 5908 5908 5908 5908 5908 5908 5908 5908 5909
5887 5887 5887 5888 5888 5888 5889 5889 5890 5891 5892 5893 5894 5895 5896 5897 5898 5899 5899 5900 5900 5901 5902 5903 5904 5904 5905 5905 5906 5906 5907 5908 5908 5908 5909 5909 5909 5909 5909 5909 5909 5909 5909
5888 5888 5888 5888 5888 5889 5889 5890 5891 5892 5893 5894 5895 5896 5897 5898 5898 5899 5900 5901 5901 5902 5902 5903 5904 5905 5905 5905 5906 5907 5907 5908 5909 5909 5909 5910 5910 5910 5910 5910 5910 5910 5910
5888 5888 5888 5889 5889 5889 5890 5890 5891 5892 5893 5894 5895 5896 5897 5898 5899 5899 5900 5901 5902 5903 5903 5904 5904 5905 5905 5906 5907 5907 5908 5908 5909 5909 5910 5910 5910 5910 5910 5910 5911 5910 5910
5889 5889 5889 5889 5889 5890 5891 5891 5892 5893 5894 5895 5896 5897 5898 5899 5899 5900 5901 5901 5902 5903 5904 5904 5905 5905 5906 5906 5907 5907 5908 5908 5909 5910 5910 5911 5911 5911 5911 5911 5911 5911 5911
5889 5889 5890 5890 5890 5891 5891 5892 5893 5893 5894 5895 5896 5897 5898 5899 5900 5900 5901 5902 5903 5903 5904 5904 5905 5905 5906 5907 5907 5907 5908 5908 5909 5910 5910 5911 5911 5911 5911 5911 5911 5912 5912
5890 5890 5890 5890 5891 5892 5892 5893 5893 5894 5895 5895 5896 5897 5898 5899 5900 5901 5902 5902 5903 5903 5903 5904 5905 5905 5905 5906 5907 5907 5908 5909 5909 5910 5910 5911 5911 5911 5911 5912 5912 5912 5912
5891 5891 5891 5891 5892 5892 5893 5893 5894 5894 5895 5896 5897 5897 5898 5899 5900 5901 5901 5902 5902 5903 5903 5904 5904 5905 5905 5906 5907 5907 5908 5908 5909 5909 5910 5911 5911 5911 5911 5912 5912 5912 5912
5893 5892 5892 5892 5892 5893 5893 5894 5894 5894 5895 5896 5896 5897 5897 5899 5899 5900 5901 5901 5902 5903 5903 5903 5904 5905 5905 5906 5906 5907 5907 5908 5909 5909 5910 5910 5911 5911 5911 5912 5912 5912 5912
5895 5894 5894 5893 5893 5894 5894 5894 5894 5895 5895 5896 5896 5897 5897 5898 5899 5900 5900 5901 5902 5902 5903 5903 5903 5904 5905 5905 5906 5907 5907 5907 5908 5909 5910 5910 5910 5911 5911 5911 5912 5911 5911
5896 5896 5895 5895 5894 5894 5894 5894 5895 5895 5895 5896 5896 5897 5897 5898 5899 5899 5900 5901 5901 5902 5902 5903 5903 5903 5904 5904 5905 5906 5907 5907 5908 5909 5909 5910 5910 5910 5911 5911 5911 5911 5911
5898 5897 5896 5896 5895 5895 5895 5895 5895 5895 5895 5896 5896 5897 5897 5898 5898 5899 5899 5900 5901 5901 5902 5902 5903 5903 5903 5904 5904 5905 5906 5907 5908 5908 5909 5909 5910 5910 5910 5910 5910 5910 5910
5899 5898 5897 5897 5896 5895 5895 5895 5895 5895 5895 5896 5896 5897 5897 5898 5898 5899 5899 5900 5901 5901 5902 5902 5903 5903 5903 5904 5904 5905 5905 5906 5907 5907 5908 5909 5909 5909 5909 5910 5910 5909 5909
5900 5899 5898 5897 5896 5896 5895 5895 5895 5895 5895 5896 5896 5897 5897 5897 5898 5898 5899 5899 5900 5901 5901 5902 5902 5903 5903 5903 5904 5904 5904 5905 5905 5906 5907 5908 5908 5908 5908 5908 5908 5908 5908
5901 5900 5899 5898 5897 5896 5896 5895 5895 5894 5895 5895 5896 5896 5895 5896 5897 5898 5898 5899 5899 5900 5900 5901 5901 5902 5902 5902 5902 5902 5902 5903 5904 5905 5906 5906 5906 5907 5907 5907 5907 5907 5906
5901 5900 5899 5898 5897 5896 5895 5895 5895 5894 5894 5895 5895 5895 5896 5896 5896 5897 5897 5898 5899 5899 5899 5900 5900 5900 5901 5901 5901 5901 5901 5902 5903 5903 5904 5904 5905 5905 5905 5905 5905 5904 5904
5901 5900 5899 5898 5897 5896 5895 5895 5894 5894 5894 5894 5894 5895 5895 5895 5895 5896 5896 5897 5898 5898 5898 5898 5898 5898 5899 5899 5900 5900 5900 5900 5901 5901 5902 5902 5903 5903 5903 5903 5903 5902 5902
5901 5900 5899 5898 5897 5896 5895 5894 5894 5893 5893 5893 5893 5894 5894 5894 5894 5894 5895 5896 5896 5896 5896 5897 5897 5897 5897 5897 5898 5898 5898 5899 5898 5899 5900 5900 5900 5900 5900 5900 5900 5900 5899
5900 5899 5898 5897 5896 5895 5894 5893 5893 5892 5892 5892 5893 5893 5892 5893 5893 5893 5893 5894 5894 5894 5894 5895 5895 5895 5895 5895 5895 5895 5895 5896 5896 5897 5897 5897 5897 5897 5897 5897 5897 5897 5896
5899 5898 5897 5896 5895 5894 5893 5892 5891 5891 5891 5891 5892 5892 5892 5892 5891 5891 5891 5891 5892 5892 5892 5892 5892 5892 5893 5893 5892 5892 5893 5893 5893 5894 5894 5894 5894 5894 5894 5894 5894 5894 5893
5898 5897 5896 5895 5894 5893 5892 5891 5890 5890 5890 5890 5890 5890 5891 5890 5890 5889 5889 5889 5889 5890 5890 5889 5889 5889 5889 5890 5890 5889 5889 5889 5889 5890 5890 5890 5890 5890 5890 5890 5890 5890 5889
5896 5895 5895 5894 5893 5892 5891 5890 5889 5889 5889 5889 5889 5889 5889 5889 5888 5888 5887 5887 5887 5887 5887 5886 5886 5886 5886 5886 5886 5885 5885 5885 5885 5885 5886 5886 5886 5886 5886 5886 5886 5886 5886